Regional Weather Roundup
Issued by NWS

Home | Current Version | Previous Version | Graphics & Text | Print | Product List | Glossary On
Versions: 1 2 3 4 5 6 7 8 9 10 11 12 13 14 15 16 17 18 19 20 21 22 23 24 25 26 27 28 29 30 31 32 33 34 35 36 37 38 39 40 41 42 43 44 45 46 47 48 49 50
000
ASUS43 KFSD 210210
RWRSD

WEATHER ROUNDUP FOR SOUTH DAKOTA
NATIONAL WEATHER SERVICE SIOUX FALLS SD
900 PM CDT SUN APR 20 2014

NOTE: "FAIR" INDICATES FEW OR NO CLOUDS BELOW 12,000 FEET WITH NO
SIGNIFICANT WEATHER AND/OR OBSTRUCTIONS TO VISIBILITY.


SDZ001>005-009-010-012>017-210300-
NORTHWEST AND NORTH CENTRAL SOUTH DAKOTA

CITY           SKY/WX    TMP DP  RH WIND       PRES   REMARKS
BUFFALO          N/A     54  21  27 NW13      30.00R
FAITH            N/A     57  27  31 NW12      30.01R
MOBRIDGE       PTCLDY    60  30  32 N10       29.93R
$$

SDZ012>016-024>037-041>051-057-063-072>074-210300-
SOUTHWEST AND SOUTH CENTRAL SOUTH DAKOTA

CITY           SKY/WX    TMP DP  RH WIND       PRES   REMARKS
RAPID CTY ARPT CLEAR     57  29  34 NW13      30.04R
PIERRE         MOCLDY    67  37  33 N21G29    29.88R
CUSTER         CLEAR     53  27  36 N9        30.09R
ELLSWORTH AFB  CLEAR     59  31  33 N15       30.04R
PHILIP         PTCLDY    63  33  32 NW15G24   29.96R
PINE RIDGE     PTCLDY    61  30  31 N17G28    30.00R
SPEARFISH      FAIR      52  28  40 N10       30.11R
WINNER         FAIR      69  46  43 S9        29.85R
$$

SDZ004>011-016>023-039-040-210300-
NORTHEAST SOUTH DAKOTA

CITY           SKY/WX    TMP DP  RH WIND       PRES   REMARKS
ABERDEEN       MOCLDY    65  31  28 E7        29.88R
WATERTOWN      PTCLDY    63  37  38 E7        29.90R
SISSETON         N/A     57  36  45 SE8       29.89S
$$

SDZ017-020-022-023-036>040-048>070-210300-
SOUTHEAST SOUTH DAKOTA

CITY           SKY/WX    TMP DP  RH WIND       PRES   REMARKS
SIOUX FALLS    PTCLDY    63  49  60 NE3       29.86R
HURON          CLEAR     63  42  46 NE7       29.84R
CHAMBERLAIN      N/A     67  48  50 E9        29.87R
MITCHELL       CLEAR     69  44  40 SE8       29.84S
YANKTON        PTCLDY    72  48  43 S7        29.86R
$$

ABBREVIATIONS USED IN REMARKS
   TC - TEMPERATURE IN CELSIUS
  WCI - WIND CHILL INDEX
   HX - HEAT INDEX
  VSB - VISIBILITY




USA.gov is the U.S. government's official web portal to all federal, state and local government web resources and services.